Jackson, Tennessee, United States (38301)
Lat: 35.61N, Lon: 88.81W
Wx Zone: TNZ052
Local Info
Past Weather Observations for Monday, April 14, 2014

NOTE: This archive is for the closest National Weather Service station to Jackson. Information may differ from the station used for current weather conditions.

Time Weather Temperature Dewpoint Humidity Pressure Winds Precip Visibility
23:53
Overcast
Light Rain
39°F / 4°C 34°F / 1°C 81% 30.01 in
(1016 mb)
NNW 16.1 mph
(NNW 26 kph)
0.00 in
(0.00 mm)
10SM
22:53
Overcast
41°F / 5°C 37°F / 3°C 87% 30.01 in
(1016 mb)
NNW 17.3 mph
(NNW 28 kph)
0.00 in
(0.00 mm)
10SM
22:29
Overcast
Light Rain
41°F / 5°C 37°F / 3°C 87% 29.98 in
(1015 mb)
NNW 15 mph
(NNW 24 kph)
0.00 in
(0.00 mm)
7SM
22:09
Overcast
41°F / 5°C 37°F / 3°C 87% 29.98 in
(1015 mb)
N 17.3 mph
(N 28 kph)
0.00 in
(0.00 mm)
7SM
21:53
Overcast
Fog And Mist
43°F / 6°C 37°F / 3°C 81% 29.98 in
(1015 mb)
NNW 18.4 mph
(NNW 30 kph)
- 6SM
21:46
Overcast
43°F / 6°C 39°F / 4°C 87% 29.98 in
(1015 mb)
NNW 16.1 mph
(NNW 26 kph)
- 10SM
21:30
Overcast
43°F / 6°C 37°F / 3°C 81% 29.98 in
(1015 mb)
N 15 mph
(N 24 kph)
- 10SM
21:06
Overcast
45°F / 7°C 39°F / 4°C 81% 29.98 in
(1015 mb)
NNW 16.1 mph
(NNW 26 kph)
- 10SM
20:53
Overcast
45°F / 7°C 39°F / 4°C 81% 29.98 in
(1015 mb)
N 15 mph
(N 24 kph)
0.01 in
(0.25 mm)
10SM
20:43
Overcast
45°F / 7°C 39°F / 4°C 81% 29.98 in
(1015 mb)
N 19.6 mph
(N 32 kph)
0.01 in
(0.25 mm)
10SM
20:27
Overcast
45°F / 7°C 41°F / 5°C 87% 29.95 in
(1014 mb)
NNW 15 mph
(NNW 24 kph)
0.01 in
(0.25 mm)
10SM
20:03
Overcast
Light Rain
45°F / 7°C 43°F / 6°C 93% 29.95 in
(1014 mb)
NNW 12.7 mph
(NNW 20 kph)
0.00 in
(0.00 mm)
7SM
19:53
Overcast
Rain
45°F / 7°C 41°F / 5°C 87% 29.95 in
(1014 mb)
N 13.8 mph
(N 22 kph)
0.03 in
(0.76 mm)
6SM
19:48
Overcast
Light Rain
45°F / 7°C 41°F / 5°C 87% 29.92 in
(1013 mb)
N 18.4 mph
(N 30 kph)
0.02 in
(0.51 mm)
7SM
19:36
Overcast
46°F / 8°C 43°F / 6°C 87% 29.92 in
(1013 mb)
N 15 mph
(N 24 kph)
0.01 in
(0.25 mm)
9SM
19:26
Overcast
Light Rain
46°F / 8°C 43°F / 6°C 87% 29.92 in
(1013 mb)
N 13.8 mph
(N 22 kph)
0.01 in
(0.25 mm)
7SM
18:56
Overcast
Light Rain
46°F / 8°C 43°F / 6°C 87% 29.92 in
(1013 mb)
NNW 15 mph
(NNW 24 kph)
0.00 in
(0.00 mm)
10SM
18:53
Overcast
Light Rain
46°F / 8°C 43°F / 6°C 87% 29.92 in
(1013 mb)
NNW 16.1 mph
(NNW 26 kph)
0.07 in
(1.78 mm)
1SM
18:48
Overcast
Fog And Mist
46°F / 8°C 43°F / 6°C 87% 29.89 in
(1012 mb)
NNW 16.1 mph
(NNW 26 kph)
0.07 in
(1.78 mm)
1SM
18:41
Overcast
Light Rain
46°F / 8°C 43°F / 6°C 87% 29.89 in
(1012 mb)
NNW 15 mph
(NNW 24 kph)
0.06 in
(1.52 mm)
1SM
17:53
Overcast
Fog And Mist
50°F / 10°C 46°F / 8°C 88% 29.86 in
(1011 mb)
N 21.9 mph
(N 35 kph)
0.02 in
(0.51 mm)
1SM
17:30
Overcast
Light Rain
52°F / 11°C 48°F / 9°C 88% 29.83 in
(1010 mb)
NW 10.4 mph
(NW 17 kph)
0.01 in
(0.25 mm)
1SM
17:28
Overcast
Light Rain
52°F / 11°C 48°F / 9°C 88% 29.83 in
(1010 mb)
NW 10.4 mph
(NW 17 kph)
0.01 in
(0.25 mm)
1 1/2SM
17:16
Overcast
Light Rain
52°F / 11°C 48°F / 9°C 88% 29.83 in
(1010 mb)
NW 11.5 mph
(NW 19 kph)
0.01 in
(0.25 mm)
4SM
17:12
Overcast
Light Rain
52°F / 11°C 48°F / 9°C 88% 29.83 in
(1010 mb)
NW 11.5 mph
(NW 19 kph)
0.01 in
(0.25 mm)
4SM
17:02
Overcast
Light Rain
52°F / 11°C 48°F / 9°C 88% 29.83 in
(1010 mb)
NW 12.7 mph
(NW 20 kph)
0.01 in
(0.25 mm)
4SM
16:53
Overcast
Light Rain
52°F / 11°C 48°F / 9°C 88% 29.8 in
(1009 mb)
N 12.7 mph
(N 20 kph)
0.21 in
(5.33 mm)
2SM
16:49
Overcast
Rain
52°F / 11°C 48°F / 9°C 88% 29.8 in
(1009 mb)
NNW 12.7 mph
(NNW 20 kph)
0.21 in
(5.33 mm)
1 1/2SM
16:35
Overcast
Rain
52°F / 11°C 48°F / 9°C 88% 29.8 in
(1009 mb)
NNW 13.8 mph
(NNW 22 kph)
0.11 in
(2.79 mm)
1SM
16:23
Overcast
Rain
52°F / 11°C 50°F / 10°C 94% 29.8 in
(1009 mb)
NNW 10.4 mph
(NNW 17 kph)
0.07 in
(1.78 mm)
2 1/2SM
16:08
Overcast
Light Rain
52°F / 11°C 50°F / 10°C 94% 29.8 in
(1009 mb)
NNW 11.5 mph
(NNW 19 kph)
0.04 in
(1.02 mm)
2SM
16:00
Overcast
Rain
52°F / 11°C 48°F / 9°C 88% 29.8 in
(1009 mb)
NW 13.8 mph
(NW 22 kph)
0.02 in
(0.51 mm)
5SM
15:53
Overcast
Rain
52°F / 11°C 50°F / 10°C 94% 29.8 in
(1009 mb)
NW 16.1 mph
(NW 26 kph)
0.38 in
(9.65 mm)
2SM
15:48
Overcast
Rain
54°F / 12°C 52°F / 11°C 94% 29.8 in
(1009 mb)
NNW 13.8 mph
(NNW 22 kph)
0.37 in
(9.40 mm)
2SM
15:29
Overcast
Rain
54°F / 12°C 52°F / 11°C 94% 29.8 in
(1009 mb)
NNW 13.8 mph
(NNW 22 kph)
0.28 in
(7.11 mm)
2SM
15:09
Overcast
Thunder Storms
54°F / 12°C 52°F / 11°C 94% 29.8 in
(1009 mb)
NW 13.8 mph
(NW 22 kph)
0.17 in
(4.32 mm)
1 1/2SM
14:58
Overcast
Thunder Storms
55°F / 13°C 54°F / 12°C 94% 29.83 in
(1010 mb)
WNW 15 mph
(WNW 24 kph)
0.09 in
(2.29 mm)
1 1/2SM
14:56
Overcast
Thunder Storms
55°F / 13°C 54°F / 12°C 94% 29.83 in
(1010 mb)
WNW 16.1 mph
(WNW 26 kph)
0.06 in
(1.52 mm)
1 3/4SM
14:53
Overcast
Thunder Storms
55°F / 13°C 54°F / 12°C 94% 29.8 in
(1009 mb)
NW 13.8 mph
(NW 22 kph)
0.11 in
(2.79 mm)
2SM
14:47
Overcast
Thunder Storms
57°F / 14°C 54°F / 12°C 88% 29.8 in
(1009 mb)
NW 10.4 mph
(NW 17 kph)
0.07 in
(1.78 mm)
2SM
14:46
Overcast
Thunder Storms
57°F / 14°C 54°F / 12°C 88% 29.8 in
(1009 mb)
NW 11.5 mph
(NW 19 kph)
0.06 in
(1.52 mm)
3SM
14:28
Overcast
Thunder Storms
59°F / 15°C 54°F / 12°C 82% 29.77 in
(1008 mb)
NW 13.8 mph
(NW 22 kph)
- 10SM
14:21
Overcast
59°F / 15°C 54°F / 12°C 82% 29.77 in
(1008 mb)
NW 13.8 mph
(NW 22 kph)
- 10SM
14:15
Overcast
61°F / 16°C 55°F / 13°C 83% 29.77 in
(1008 mb)
NW 17.3 mph
(NW 28 kph)
- 10SM
13:53
Overcast
68°F / 20°C 55°F / 13°C 64% 29.77 in
(1008 mb)
SSE 13.8 mph
(SSE 22 kph)
- 10SM
13:23
Overcast
68°F / 20°C 55°F / 13°C 64% 29.74 in
(1007 mb)
S 10.4 mph
(S 17 kph)
- 10SM
13:10
Overcast
66°F / 19°C 57°F / 14°C 73% 29.77 in
(1008 mb)
SW 5.8 mph
(SW 9 kph)
- 10SM
12:53
Overcast
68°F / 20°C 57°F / 14°C 69% 29.8 in
(1009 mb)
SSW 8.1 mph
(SSW 13 kph)
- 10SM
11:53
Overcast
68°F / 20°C 55°F / 13°C 64% 29.8 in
(1009 mb)
SSW 9.2 mph
(SSW 15 kph)
- 10SM
11:46
Overcast
70°F / 21°C 57°F / 14°C 64% 29.8 in
(1009 mb)
SW 6.9 mph
(SW 11 kph)
- 10SM
10:53
Overcast
66°F / 19°C 57°F / 14°C 73% 29.83 in
(1010 mb)
SW 6.9 mph
(SW 11 kph)
- 10SM
10:37
Mostly Cloudy
66°F / 19°C 57°F / 14°C 73% 29.83 in
(1010 mb)
SSW 8.1 mph
(SSW 13 kph)
- 10SM
10:00
Mostly Cloudy
66°F / 19°C 57°F / 14°C 73% 29.83 in
(1010 mb)
SSE 9.2 mph
(SSE 15 kph)
- 10SM
09:53
Mostly Cloudy
66°F / 19°C 57°F / 14°C 73% 29.83 in
(1010 mb)
S 11.5 mph
(S 19 kph)
- 10SM
09:11
Overcast
63°F / 17°C 57°F / 14°C 83% 29.86 in
(1011 mb)
SW 8.1 mph
(SW 13 kph)
- 10SM
08:53
Overcast
63°F / 17°C 57°F / 14°C 83% 29.83 in
(1010 mb)
SW 6.9 mph
(SW 11 kph)
- 10SM
07:53
Overcast
61°F / 16°C 57°F / 14°C 88% 29.8 in
(1009 mb)
SW 6.9 mph
(SW 11 kph)
- 10SM
06:53
Mostly Cloudy
59°F / 15°C 57°F / 14°C 94% 29.8 in
(1009 mb)
Calm - 10SM
05:53
Mostly Cloudy
59°F / 15°C 55°F / 13°C 88% 29.77 in
(1008 mb)
SSE 4.6 mph
(SSE 7 kph)
- 10SM
04:53
Clear
59°F / 15°C 55°F / 13°C 88% 29.71 in
(1006 mb)
S 3.5 mph
(S 6 kph)
0.00 in
(0.00 mm)
10SM
03:53
Overcast
59°F / 15°C 55°F / 13°C 88% 29.68 in
(1005 mb)
SSE 5.8 mph
(SSE 9 kph)
0.02 in
(0.51 mm)
10SM
03:00
Overcast
Light Rain
61°F / 16°C 57°F / 14°C 88% 29.74 in
(1007 mb)
NW 5.8 mph
(NW 9 kph)
0.01 in
(0.25 mm)
8SM
02:53
Overcast
Light Rain
61°F / 16°C 57°F / 14°C 88% 29.74 in
(1007 mb)
NW 16.1 mph
(NW 26 kph)
0.09 in
(2.29 mm)
4SM
01:53
Overcast
Rain
64°F / 18°C 61°F / 16°C 88% 29.74 in
(1007 mb)
SSE 15 mph
(SSE 24 kph)
0.08 in
(2.03 mm)
5SM
00:53
Mostly Cloudy
66°F / 19°C 61°F / 16°C 83% 29.71 in
(1006 mb)
S 11.5 mph
(S 19 kph)
0.06 in
(1.52 mm)
10SM
Time Weather Temperature Dewpoint Humidity Pressure Winds Precip Visibility


Weather for websites

WeatherForYou.com, LLC is not responsible for any damages or problems caused by this service. Current weather conditions are obtained from the closest station including government and personal stations which may have varying degrees of accuracy. Weather forecasts are derived from the NOAA NDFD. Like all things, this site belongs to Jesus Christ... He just trusts me to maintain it. If you have any questions or comments email webmaster@weatherforyou.com

Copyright © 2014, WeatherForYou.com LLC. All rights reserved.